Weather History for Grand Marais, MN

Change the Weather History Date:

Wednesday, February 13, 2013

  Actual Average (KCKC) Record (KCKC)
Temperature  
Mean Temperature 30 °F -  
Max Temperature 36 °F 20 °F 46 °F (1997)
Min Temperature 23 °F 4 °F -18 °F (2007)
Degree Days  
Heating Degree Days 36    
Moisture  
Dew Point 21 °F    
Average Humidity 71    
Maximum Humidity 81    
Minimum Humidity 62    
Precipitation  
Precipitation 0.00 in - - ()
Sea Level Pressure  
Sea Level Pressure 29.66 in    
Wind  
Wind Speed 5 mph (West)    
Max Wind Speed 16 mph    
Max Gust Speed 24 mph    
Averages and records for this station are not official NWS values.
T = Trace of Precipitation, MM = Missing Value Source: NWS Daily Summary

Daily Weather History Graph

Daily Weather History Graph

Search for Another Location

Airport:

Trip Planner

Search our weather history database for the weather conditions in past years. The results will help you decide how hot, cold, wet, or windy it might be!

Date:

Astronomy

Feb. 13, 2013 Rise Set
Actual Time 7:10 AM CST 5:21 PM CST
Civil Twilight 6:38 AM CST 5:53 PM CST
Nautical Twilight 6:01 AM CST 6:29 PM CST
Astronomical Twilight 5:26 AM CST 7:05 PM CST
Moon 8:19 AM CST (2/13) 9:47 PM CST (2/13)
Length of Visible Light 11h 15m
Length of Day
10h 11m
Waxing Crescent, 14% of the Moon is Illuminated
Feb 13
Waxing Crescent
Feb 17
First Quarter
Feb 25
Full
Mar 4
Last Quarter
Mar 11
New

Hourly Weather History & Observations

Time (CST) Temp. Windchill Dew Point Humidity Pressure Visibility Wind Dir Wind Speed Gust Speed Precip Events Conditions
12:56 AM 23.0 °F - 17.1 °F 78% 29.68 in - Calm Calm - N/A   Unknown
1:56 AM 24.1 °F 18.2 °F 19.0 °F 81% 29.67 in - West 4.6 mph - N/A   Unknown
2:56 AM 26.1 °F 16.2 °F 19.0 °F 75% 29.65 in - NW 10.4 mph 24.2 mph N/A   Unknown
3:56 AM 26.1 °F 15.6 °F 19.0 °F 75% 29.64 in - NW 11.5 mph 21.9 mph N/A   Unknown
4:56 AM 27.0 °F 17.3 °F 19.0 °F 72% 29.63 in - NW 10.4 mph 18.4 mph N/A   Unknown
5:56 AM 28.9 °F 17.3 °F 21.0 °F 72% 29.64 in - SSW 16.1 mph 20.7 mph N/A   Unknown
6:56 AM 27.0 °F 19.5 °F 19.0 °F 72% 29.64 in - SW 6.9 mph - N/A   Unknown
7:56 AM 27.0 °F 21.6 °F 19.9 °F 75% 29.65 in - WSW 4.6 mph - N/A   Unknown
8:56 AM 28.9 °F 20.4 °F 21.9 °F 75% 29.64 in - WSW 9.2 mph - N/A   Unknown
9:56 AM 32.0 °F - 21.9 °F 66% 29.63 in - Calm Calm - N/A   Unknown
10:56 AM 36.0 °F 30.3 °F 25.0 °F 64% 29.63 in - WSW 6.9 mph - N/A   Unknown
11:56 AM 32.0 °F 23.0 °F 25.0 °F 75% 29.63 in - SSW 11.5 mph - N/A   Unknown
12:56 PM 36.0 °F 32.1 °F 24.1 °F 62% 29.62 in - Variable 4.6 mph - N/A   Unknown
1:56 PM 32.0 °F 25.6 °F 21.9 °F 66% 29.64 in - NNW 6.9 mph - N/A   Unknown
2:56 PM 32.0 °F 27.5 °F 21.9 °F 66% 29.65 in - Variable 4.6 mph - N/A   Unknown
3:56 PM 30.0 °F 23.2 °F 19.9 °F 66% 29.65 in - Variable 6.9 mph - N/A   Unknown
4:56 PM 30.0 °F - 19.9 °F 66% 29.66 in - Calm Calm - N/A   Unknown
5:56 PM 30.0 °F - 19.9 °F 66% 29.67 in - Calm Calm - N/A   Unknown
6:56 PM 28.9 °F - 21.0 °F 72% 29.68 in - Calm Calm - N/A   Unknown
7:56 PM 28.9 °F - 21.9 °F 75% 29.69 in - Calm Calm - N/A   Unknown
8:56 PM 28.9 °F - 21.9 °F 75% 29.69 in - Calm Calm - N/A   Unknown
9:56 PM 28.9 °F - 21.0 °F 72% 29.69 in - Calm Calm - N/A   Unknown
10:56 PM 28.9 °F - 21.9 °F 75% 29.68 in - Calm Calm - N/A   Unknown
11:56 PM 28.9 °F - 21.9 °F 75% 29.69 in - Calm Calm - N/A   Unknown